Voltar ao catálogo

ICEYE-X51

AtivoCiênciaSSO
NORAD 63257·PAYLOAD·🇺🇸 United States

Lançado Mar 15, 2025 de Vandenberg Space Force Base

Loading…

Próximas Passagens (próximas 24 horas)

TLE

AtualizadoSource: Space-Track

Época: Sep 14, 2026, 20:40 UTC

1 63257U 25052AZ  26257.86121865  .00003772  00000-0  30130-3 0  9995
2 63257  97.7701 152.8601 0001854  61.0141 299.1268 15.00867786 82252

Acompanhe ICEYE-X51 em tempo real com AllMySat

Download on the App Store